Regional Weather Roundup
Issued by NWS

Home | Current Version | Previous Version | Graphics & Text | Print | Product List | Glossary On
Versions: 1 2 3 4 5 6 7 8 9 10 11 12 13 14 15 16 17 18 19 20 21 22 23 24 25 26 27 28 29 30 31 32 33 34 35 36 37 38 39 40 41 42 43 44 45 46 47 48 49 50
000
ASUS45 KSLC 271210
RWRUT

UTAH REGIONAL WEATHER ROUNDUP
NATIONAL WEATHER SERVICE SALT LAKE CITY UT
600 AM MDT WED JUL 27 2016

UTZ001>011-023>025-271300-

NORTHERN UTAH

CITY           SKY/WX    TMP DP  RH WIND       PRES   REMARKS
BRIGHAM CITY     N/A     60  42  50 CALM      30.09R
HILL AFB       CLEAR     67  30  24 E21       30.12R
LOGAN          CLEAR     53  44  71 NW7       30.12R
OGDEN          CLEAR     67  31  26 S10       30.08S
PROVO AIRPORT  CLEAR     64  41  42 CALM      30.12R
SALT LAKE CITY CLEAR     71  42  35 S9        30.08R
VERNAL         CLEAR     56  41  57 W6        30.18R
WENDOVER       PTCLDY    70  37  30 S6        30.10S
HEBER CITY     CLEAR     46  39  76 CALM      30.23R

$$

UTZ012>022-026-027-271300-

SOUTHERN/CENTRAL UTAH

CITY           SKY/WX    TMP DP  RH WIND       PRES   REMARKS
BLANDING       CLEAR     60  50  70 N9        30.30R
BRYCE CANYON   PTCLDY    50  39  66 NW3       30.37R
CEDAR CITY     CLEAR     65  39  38 CALM      30.17R
DELTA          CLEAR     61  28  29 N3        30.11R
MILFORD        CLEAR     62  37  39 CALM      30.12R
MOAB/CYNLANDS  CLEAR     72  39  30 CALM      30.09S
PRICE          CLEAR     63  35  35 N5        30.21
ST GEORGE      SUNNY     82  43  24 E9        29.98R

$$

REGIONAL REPORTS     COLORADO/ARIZONA

CITY           SKY/WX    TMP DP  RH WIND       PRES   REMARKS
CRAIG, CO      CLOUDY    43  38  82 SW6       30.27R
GRAND JUNCTION CLEAR     65  42  43 E6        30.16R
RIFLE          CLOUDY    55  41  59 NE5       30.25R
MONTROSE       CLEAR     57  42  57 S6        30.26R
CORTEZ         CLEAR     54  44  69 E5        30.25S
PAGE, AZ       CLEAR     76  42  29 CALM      30.08R
GRAND CANYON   CLEAR     52  43  71 E3        30.30R HAZE
KINGMAN        CLEAR     82  51  34 SE6       30.01R
FLAGSTAFF      CLEAR     53  50  89 CALM      30.32R

$$

REGIONAL REPORTS    NEVADA/IDAHO/WYOMING

CITY           SKY/WX    TMP DP  RH WIND       PRES   REMARKS
LAS VEGAS, NV  PTCLDY    91  43  18 CALM      29.82R
ELY            PTCLDY    48  19  31 S12       30.26R
ELKO           PTCLDY    56  27  32 CALM      30.17R
POCATELLO, ID  CLEAR     47  39  74 CALM      30.14R
BURLEY         CLEAR     55  48  77 E3        30.09S
EVANSTON, WY   CLOUDY    61  22  22 S7        30.31S
ROCK SPRINGS   CLOUDY    57  31  37 SW3       30.27S
KEMMERER         N/A     46  32  57 N13       30.31S

$$



USA.gov is the U.S. government's official web portal to all federal, state and local government web resources and services.